Regional Weather Roundup
Issued by NWS

Home | Current Version | Previous Version | Text Only | Print | Product List | Glossary On
Versions: 1 2 3 4 5 6 7 8 9 10 11 12 13 14 15 16 17 18 19 20 21 22 23 24 25 26 27 28 29 30 31 32 33 34 35 36 37 38 39 40 41 42 43 44 45 46 47 48 49 50
807
ASUS46 KPQR 052210
RWROR

OREGON REGIONAL WEATHER ROUNDUP
NATIONAL WEATHER SERVICE PORTLAND OR
200 PM PST FRI FEB 05 2016

NOTE: "FAIR" INDICATES FEW OR NO CLOUDS BELOW 12,000 FEET WITH
NO SIGNIFICANT WEATHER AND/OR OBSTRUCTIONS TO VISIBILITY.

ORZ001>013-052300-
NORTHWEST OREGON


CITY           SKY/WX    TMP DP  RH WIND       PRES   REMARKS
ASTORIA        CLOUDY    56  43  61 S26G40    30.06F
NEWPORT        CLOUDY    52  46  82 S28G39    30.22F HAZE
PORTLAND       CLOUDY    52  40  63 E13       30.21F
VANCOUVER WA   CLOUDY    52  40  63 E10       30.20F
SCAPPOOSE      CLOUDY    51  41  68 SE7       30.18F
HILLSBORO      CLOUDY    49  43  80 SE6       30.18F
AURORA         CLOUDY    50  42  74 CALM      30.21F
MCMINNVILLE    CLOUDY    48  43  82 SE5       30.19F
SALEM          CLOUDY    57  39  51 S13       30.19F
CORVALLIS      CLOUDY    54  43  66 S20       30.20F
EUGENE         CLOUDY    58  39  49 S15       30.23F
$$

ORZ021-028-052300-
SOUTHWEST OREGON


CITY           SKY/WX    TMP DP  RH WIND       PRES   REMARKS
NORTH BEND     PTSUNNY   61  43  51 SW13      30.25F
BROOKINGS      PTSUNNY   54  44  69 S13       30.37F
ROSEBURG       CLOUDY    58  39  49 S7        30.26F
SEXTON SUMMIT  CLOUDY    44  26  49 S18G32    30.29F
MEDFORD        CLOUDY    50  38  63 CALM      30.35S
$$

ORZ014>016-041-052300-
COLUMBIA GORGE


CITY           SKY/WX    TMP DP  RH WIND       PRES   REMARKS
TROUTDALE      CLOUDY    50  40  68 E12       30.22F
THE DALLES     CLOUDY    44  39  82 CALM      30.28F
$$

ORZ029>031-041-044-049-050-061>064-502-503-505>511-052300-
EASTERN OREGON


CITY           SKY/WX    TMP DP  RH WIND       PRES   REMARKS
REDMOND        CLOUDY    51  29  42 S8        30.26F
BEND           CLOUDY    50  27  40 VRB3      30.28F
PRINEVILLE     CLOUDY    50  28  43 SE13      30.28S
KLAMATH FALLS  SUNNY     44  31  60 VRB3      30.36F
LAKEVIEW       PTSUNNY   37  27  65 E3        30.40F
HERMISTON      CLOUDY    54  42  64 NW6       30.24F
PENDLETON      PTSUNNY   59  32  36 SE9       30.24F
JOHN DAY       MOSUNNY   51  30  44 S21       30.33F
MEACHAM        PTSUNNY   38  31  76 VRB3      30.30F
LA GRANDE      PTSUNNY   43  30  61 S21G30    30.37F
BAKER CITY     PTSUNNY   38  31  76 E17G26    30.40F WCI  28
BURNS          MOSUNNY   40  25  55 CALM      30.40F
ROME             N/A     46  29  51 MISG      30.42F
ONTARIO        CLOUDY    32  30  92 CALM      30.54F FOG
$$




USA.gov is the U.S. government's official web portal to all federal, state and local government web resources and services.